Location: �perlecques
(50.8057°N, 2.1521°E)
Time: 21:02:37
(UTC+00:00)

Tiros 1 - Pass Details

Date: 10 August 2021
Orbit: 630 x 663 km, 48.4° (Epoch: 28 September)

Event Time Altitude Azimuth Distance (km) Brightness Sun altitude
Rises 20:13:10 0° 280° (W) 2,985 11.9 -7.9°
Reaches altitude 10° 20:15:59 10° 265° (W) 2,065 10.5 -8.2°
Maximum altitude 20:19:33 21° 216° (SW) 1,446 8.9 -8.7°
Drops below altitude 10° 20:23:05 10° 167° (SSE) 2,042 9.3 -9.1°
Enters shadow 20:23:49 - 162° (SSE) 2,262 9.4 -9.2°
Sets 20:25:51 0° 152° (SSE) 2,941 - -9.5°
